Location: *
(49.5667°N, 1.3667°W)
Time: 15:33:27
(UTC+00:00)

Cosmos 1674 - Pass Details

Date: 20 September 2019
Orbit: 495 x 520 km, 82.5° (Epoch: 15 October)

Event Time Altitude Azimuth Distance (km) Brightness Sun altitude
Rises 19:16:14 0° 0° (N) 2,600 6.5 -11.6°
Reaches altitude 10° 19:18:41 10° 15° (NNE) 1,708 5.3 -12.0°
Maximum altitude 19:21:44 23° 70° (ENE) 1,088 3.9 -12.5°
Enters shadow 19:22:48 21° 96° (E) 1,179 3.9 -12.7°
